Volver al catálogo

STARLINK-3659

ActivoComunicacionesVLEO
NORAD 52001·PAYLOAD·🇺🇸 United States

Lanzado Mar 9, 2022 desde Cape Canaveral Space Force Station

Loading…

Próximos Pases (próximas 24 horas)

TLE

ActualizadoSource: CelesTrak SupGP

Época: Sep 14, 2026, 21:45 UTC

1 52001C 22025AX  26257.90673611  .00037873  00000+0  10841-2 0  2574
2 52001  53.1571 239.7461 0001403 109.0387 160.4539 15.35365682    13

Sigue STARLINK-3659 en tiempo real con AllMySat

Download on the App Store